Ephrata, WA

11:19 PM PDT on April 20, 2018 (GMT -0700)
Ephrata Municipal

Weather History for KEPH - July, 2013

Change the Weather History Date:

Friday, July 5, 2013

  Actual Average Record
Temperature  
Mean Temperature 75 °F 72 °F  
Max Temperature 86 °F 86 °F 108 °F (1975)
Min Temperature 64 °F 58 °F 45 °F (1980)
Degree Days  
Heating Degree Days 0 0  
Month to date heating degree days 0 4  
Since 1 June heating degree days 58 64  
Since 1 July heating degree days 0 4  
Cooling Degree Days 10 7  
Month to date cooling degree days 89 34  
Year to date cooling degree days 258 181  
Since 1 June cooling degree days 201 144  
Growing Degree Days 24 (Base 50)    
Moisture  
Dew Point 41 °F    
Average Humidity 32    
Maximum Humidity 40    
Minimum Humidity 23    
Precipitation  
Precipitation 0.00 in 0.01 in 0.68 in (1951)
Month to date precipitation T 0.07  
Year to date precipitation 3.61 4.14  
Sea Level Pressure  
Sea Level Pressure 29.78 in    
Wind  
Wind Speed 12 mph (West)    
Max Wind Speed 26 mph    
Max Gust Speed 33 mph    
Visibility 10 miles    
Events      
T = Trace of Precipitation, MM = Missing Value Source: NWS Daily Summary

Daily Weather History Graph

Daily Weather History Graph

Search for Another Location

Airport or City:

Astronomy

Jul. 05, 2013 Rise Set
Actual Time 5:08 AM PDT 8:56 PM PDT
Civil Twilight 4:28 AM PDT 9:36 PM PDT
Nautical Twilight 3:35 AM PDT 10:29 PM PDT
Astronomical Twilight 2:16 AM PDT 11:47 PM PDT
Moon 3:15 AM PDT (7/5) 6:51 PM PDT (7/5)
Length of Visible Light 17h 07m
Length of Day
15h 47m
Waning Crescent, 6% of the Moon is Illuminated
Jul 5
Waning Crescent
Jul 8
New
Jul 15
First Quarter
Jul 22
Full
Jul 29
Last Quarter

Hourly Weather History & Observations

Time (PDT) Temp. Dew Point Humidity Pressure Visibility Wind Dir Wind Speed Gust Speed Precip Events Conditions
12:53 AM 68.0 °F 39.9 °F 36% 29.76 in 10.0 mi WNW 19.6 mph 26.5 mph N/A   Clear
1:53 AM 66.9 °F 39.9 °F 37% 29.76 in 10.0 mi WNW 21.9 mph 31.1 mph N/A   Clear
2:53 AM 66.0 °F 39.9 °F 38% 29.75 in 10.0 mi WNW 24.2 mph 33.4 mph N/A   Clear
3:53 AM 64.9 °F 39.9 °F 40% 29.77 in 10.0 mi WNW 17.3 mph 27.6 mph N/A   Clear
4:53 AM 64.0 °F 39.0 °F 40% 29.79 in 10.0 mi West 9.2 mph 19.6 mph N/A   Clear
5:53 AM 64.9 °F 39.0 °F 39% 29.81 in 10.0 mi Variable 4.6 mph - N/A   Clear
6:53 AM 66.9 °F 39.0 °F 36% 29.82 in 10.0 mi WNW 8.1 mph - N/A   Clear
7:53 AM 71.1 °F 39.0 °F 31% 29.82 in 10.0 mi NW 6.9 mph - N/A   Clear
8:53 AM 73.9 °F 37.9 °F 27% 29.83 in 10.0 mi NW 6.9 mph - N/A   Clear
9:53 AM 75.9 °F 39.0 °F 26% 29.82 in 10.0 mi Variable 3.5 mph - N/A   Clear
10:53 AM 78.1 °F 39.0 °F 25% 29.81 in 10.0 mi Calm Calm - N/A   Clear
11:53 AM 80.1 °F 39.9 °F 24% 29.81 in 10.0 mi SW 12.7 mph 19.6 mph N/A   Clear
12:53 PM 81.0 °F 42.1 °F 25% 29.80 in 10.0 mi South 15.0 mph 23.0 mph N/A   Clear
1:53 PM 82.9 °F 42.1 °F 24% 29.79 in 10.0 mi SSW 15.0 mph 20.7 mph N/A   Clear
2:53 PM 84.9 °F 42.1 °F 22% 29.77 in 10.0 mi SSW 15.0 mph 23.0 mph N/A   Clear
3:53 PM 84.0 °F 42.1 °F 23% 29.75 in 10.0 mi SW 12.7 mph 24.2 mph N/A   Clear
4:53 PM 84.9 °F 42.1 °F 22% 29.74 in 10.0 mi SSW 12.7 mph 23.0 mph N/A   Clear
5:53 PM 84.0 °F 42.1 °F 23% 29.73 in 10.0 mi SW 16.1 mph - N/A   Clear
6:53 PM 82.9 °F 43.0 °F 24% 29.73 in 10.0 mi SW 16.1 mph 23.0 mph N/A   Clear
7:53 PM 81.0 °F 44.1 °F 27% 29.74 in 10.0 mi West 9.2 mph 17.3 mph N/A   Clear
8:53 PM 75.9 °F 42.1 °F 30% 29.76 in 10.0 mi WNW 12.7 mph - N/A   Clear
9:53 PM 73.0 °F 41.0 °F 31% 29.78 in 10.0 mi WNW 13.8 mph - N/A   Clear
10:53 PM 71.1 °F 41.0 °F 34% 29.78 in 10.0 mi WNW 16.1 mph - N/A   Clear
11:53 PM 69.1 °F 42.1 °F 38% 29.78 in 10.0 mi NW 19.6 mph 26.5 mph N/A   Clear